Regional Weather Roundup
Issued by NWS

Home | Current Version | Previous Version | Graphics & Text | Print | Product List | Glossary On
Versions: 1 2 3 4 5 6 7 8 9 10 11 12 13 14 15 16 17 18 19 20 21 22 23 24 25 26 27 28 29 30 31 32 33 34 35 36 37 38 39 40 41 42 43 44 45 46 47 48 49 50
000
ASUS44 KMEG 251610
RWRTN
TENNESSEE HOURLY STATE WEATHER ROUNDUP
NATIONAL WEATHER SERVICE MEMPHIS TN
1100 AM CDT SAT APR 25 2015

TNZ002-004-019-021-049-052-054-088>092-251700-
WEST TENNESSEE

CITY           SKY/WX    TMP DP  RH WIND       PRES   REMARKS
MEMPHIS INTL   CLOUDY    69  65  86 SW13G25   29.65F
NWS MEMPHIS      N/A     68 N/A N/A MISG        N/A
JACKSON        PTSUNNY   72  63  73 SW16G29   29.64F
DYERSBURG      CLOUDY    70  52  52 SW9       29.63F
UNION CITY     CLOUDY    66  32  28 SW10      29.62R
PARIS          CLOUDY    68  61  77 SW15      29.63S
LEXINGTON      PTSUNNY   70  63  78 SW13      29.64F
SAVANNAH       CLOUDY    70  32  24 SW9       29.67F
$$

TNZ008-025-027-028-033-062-065-066-251700-
NORTH MIDDLE TENNESSEE

CITY           SKY/WX    TMP DP  RH WIND       PRES   REMARKS
NASHVILLE      CLOUDY    69  62  78 S10       29.68F
CLARKSVILLE    PTSUNNY   70  60  70 S13G22    29.63F
SMYRNA         CLOUDY    68  61  78 S9        29.69F
COOKEVILLE     SUNNY     70  61  73 SW6       29.70F
CROSSVILLE     PTSUNNY   66  56  70 SW12G23   29.74F
$$

TNZ061-075-076-078-094-096-097-251700-
SOUTH MIDDLE TENNESSEE

CITY           SKY/WX    TMP DP  RH WIND       PRES   REMARKS
FAYETTEVILLE     N/A     70  63  78 SW14      29.73S
TULLAHOMA      MOSUNNY   72  61  68 SW14      29.72S
WINCHESTER     PTSUNNY   72  63  73 S5        29.72F
MCMINNVILLE    CLOUDY    72  63  73 SW12      29.71S
COLUMBIA       MOSUNNY   70  32  24 SW13      29.67F
SHELBYVILLE    PTSUNNY   72  64  78 SW13      29.71F
$$

TNZ017-018-042-046-047-251700-
NORTHEAST TENNESSEE

CITY           SKY/WX    TMP DP  RH WIND       PRES   REMARKS
TRI CITIES     CLOUDY    58  45  62 E5        29.78F
ELIZABETHTON   CLOUDY    55  46  71 CALM      29.78S
$$

TNZ012-013-036-069-073-074-251700-
CENTRAL EAST TENNESSEE

CITY           SKY/WX    TMP DP  RH WIND       PRES   REMARKS
KNOXVILLE      PTSUNNY   59  51  75 VRB5      29.75F
OAK RIDGE      CLOUDY    59  54  83 CALM      29.77F
GATLINBURG     SUNNY     59  48  67 CALM      29.76F
MORRISTOWN     SUNNY     57  52  82 VRB5      29.77F
$$

TNZ083-085-099-251700-
SOUTHEAST TENNESSEE

CITY           SKY/WX    TMP DP  RH WIND       PRES   REMARKS
CHATTANOOGA    PTSUNNY   67  61  81 S8        29.74F
$$

SKY/WX REPORTED AS FAIR MEANS FEW OR NO CLOUDS BELOW
12 THOUSAND FEET.




USA.gov is the U.S. government's official web portal to all federal, state and local government web resources and services.